Regional Weather Roundup
Issued by NWS State College, PA

Home | Current Version | Previous Version | Text Only | Print | Product List | Glossary Off
Versions: 1 2 3 4 5 6 7 8 9 10 11 12 13 14 15 16 17 18 19 20 21 22 23 24 25 26 27 28 29 30 31 32 33 34 35 36 37 38 39 40 41 42 43 44 45 46 47 48 49 50

000
ASUS41 KCTP 280610
RWRCTP

REGIONAL WEATHER ROUNDUP
NATIONAL WEATHER SERVICE STATE COLLEGE PA
100 AM EST SAT FEB 28 2015

Note: "fair" indicates few or no clouds below 12,000 feet with no
significant weather and/or obstructions to visibility.

* = STATION THAT DOES NOT REPORT PRECIPITATION /E.G. RAIN...SNOW...ETC/
    THUNDER OR FOG.

PAZ002>004-007>009-013>016-020>023-029>032-280700-
WESTERN PENNSYLVANIA

CITY           SKY/WX    TMP DP  RH WIND       PRES   REMARKS
ERIE           PTCLDY     0  -7  72 S6        30.68S WCI -12
MEADVILLE        N/A      3  -5  69 S5        30.60S WCI  -6
FRANKLIN*      MOCLDY    -2  -8  78 CALM      30.61R
NEW CASTLE     FAIR      -3  -7  83 CALM      30.67R
BEAVER COUNTY  NOT AVBL
BUTLER*        PTCLDY     0  -4  85 CALM      30.64R
PITTSBURGH INT MOCLDY     5  -2  72 CALM      30.63S
PITTSBURGH     PTCLDY    10  -5  50 CALM      30.62S
INDIANA*       PTCLDY    -2  -9  71 CALM      30.66R
LATROBE        PTCLDY     3  -2  78 CALM      30.66S
WASHINGTON CO* PTCLDY     0  -6  78 CALM      30.64S
$$

PAZ004>006-010>012-017>019-024>028-033>037-041-042-045-046-049>053-280700-
CENTRAL PENNSYLVANIA

CITY           SKY/WX    TMP DP  RH WIND       PRES   REMARKS
BRADFORD       CLEAR     -5 -11  75 SW5       30.52S WCI -16
DUBOIS         PTCLDY     1  -6  72 CALM      30.56S
CLEARFIELD     PTCLDY     1  -7  68 SW3       30.60S
JOHNSTOWN      PTCLDY     3  -7  63 E3        30.50F
ALTOONA        PTCLDY     7  -6  55 N7        30.59S WCI  -5
STATE COLLEGE  PTCLDY     5  -7  57 CALM      30.62S
WILLIAMSPORT   CLEAR     13  -4  46 CALM      30.68R
SELINSGROVE    CLEAR     13  -3  49 VRB3      30.68R
FT INDIANTOWN  CLEAR     16  -4  40 NW6       30.66R WCI   8
CAPITAL CITY   CLEAR     17  -3  41 NW6       30.67R WCI   9
HARRISBURG     CLEAR     18   0  45 NW8       30.67R WCI   8
YORK           CLEAR      6  -3  66 W5        30.66R WCI  -3
$$

PAZ038>040-043-044-047-048-054-055-060>062-067>071-280700-
EASTERN PENNSYLVANIA

CITY           SKY/WX    TMP DP  RH WIND       PRES   REMARKS
SCRANTON       CLEAR     10  -3  55 N3        30.62R
MOUNT POCONO     N/A    N/A N/A N/A MISG      30.49R
ALLENTOWN      CLEAR     12  -4  48 CALM      30.65R
QUAKERTOWN*    CLEAR     14   0  52 N6        30.63R WCI   5
READING        CLEAR     15  -1  49 CALM      30.65R
LANCASTER      CLEAR     15   0  51 NW9       30.64R WCI   3
COATESVILLE    CLEAR     18   3  53 NW8       30.61S WCI   7
POTTSTOWN      CLEAR     13   2  61 CALM      30.65R
BLUE BELL      CLEAR     19   5  53 CALM      30.63R
DOYLESTOWN     CLEAR     15   0  51 N8        30.62R WCI   4
WILLOW GROVE   NOT AVBL
NORTH PHILA    FAIR      20   2  45 NW6       30.66R WCI  12
PHILADELPHIA   CLEAR     22   5  48 NW8       30.67R WCI  12
$$


USA.gov is the U.S. government's official web portal to all federal, state and local government web resources and services.